Location: Rotheul
(50.2849°N, 11.2349°E)
Time: 11:54:49
(UTC+02:00)

ISS - Pass Details

Date: 15 July 2018
Orbit: 402 x 408 km, 51.6° (Epoch: 21 July)

Event Time Altitude Azimuth Distance (km) Brightness Sun altitude
Exits shadow 03:22:35 - 271° (W) 1,719 -0.9 -13.3°
Reaches altitude 10° 03:23:12 10° 273° (W) 1,469 -1.3 -13.3°
Maximum altitude 03:26:28 67° 356° (N) 445 -3.5 -13.0°
Drops below altitude 10° 03:29:46 10° 81° (E) 1,473 -0.4 -12.7°
Sets 03:31:52 0° 84° (E) 2,335 0.6 -12.6°
